Kremmling, CO

12:29 PM MST on November 13, 2019 (GMT -0700)
Kremmling

Weather History for K20V - September, 2019

Change the Weather History Date:

Sunday, September 1, 2019

  Actual Average Record
Temperature  
Mean Temperature 62 °F -  
Max Temperature 88 °F - 86 °F (2017)
Min Temperature 37 °F - 30 °F (2005)
Degree Days  
Heating Degree Days 2    
Month to date heating degree days 2  
Cooling Degree Days 0    
Month to date cooling degree days 0  
Growing Degree Days 12 (Base 50)    
Moisture  
Dew Point 34 °F    
Average Humidity 44    
Maximum Humidity 82    
Minimum Humidity 14    
Precipitation  
Precipitation 0.00 in - 0.68 in (2015)
Snow  
Snow 0.00 in - - ()
Snow Depth 0.00 in    
Sea Level Pressure  
Sea Level Pressure 30.38 in    
Wind  
Wind Speed 1 mph ()    
Max Wind Speed 9 mph    
Max Gust Speed -    
Visibility 10.0 miles    
Events      
T = Trace of Precipitation, MM = Missing Value Source: Averaged Metar Reports

Daily Weather History Graph

Daily Weather History Graph

Search for Another Location

Airport or City:

Astronomy

Sep. 01, 2019 Rise Set
Actual Time 6:33 AM MDT 7:37 PM MDT
Civil Twilight 6:05 AM MDT 8:04 PM MDT
Nautical Twilight 5:32 AM MDT 8:38 PM MDT
Astronomical Twilight 4:57 AM MDT 9:12 PM MDT
Moon 9:06 AM MDT (9/1) 9:26 PM MDT (9/1)
Length of Visible Light 13h 59m
Length of Day
13h 04m
Waxing Crescent, 8% of the Moon is Illuminated
Sep 1
Waxing Crescent
Sep 5
First Quarter
Sep 13
Full
Sep 21
Last Quarter
Sep 28
New

Hourly Weather History & Observations

Time (MDT) Temp. Dew Point Humidity Pressure Visibility Wind Dir Wind Speed Gust Speed Precip Events Conditions
12:11 AM 50.0 °F 33.8 °F 54% 30.36 in 10.0 mi Calm Calm - N/A   Clear
12:29 AM 50.0 °F 35.6 °F 58% 30.36 in 10.0 mi Calm Calm - N/A   Clear
12:47 AM 48.2 °F 35.6 °F 62% 30.37 in 10.0 mi Calm Calm - N/A   Clear
1:06 AM 48.2 °F 35.6 °F 62% 30.37 in 10.0 mi Calm Calm - N/A   Clear
1:29 AM 48.2 °F 35.6 °F 62% 30.37 in 10.0 mi Calm Calm - N/A   Clear
1:47 AM 48.2 °F 37.4 °F 66% 30.37 in 10.0 mi Calm Calm - N/A   Clear
2:06 AM 48.2 °F 37.4 °F 66% 30.38 in 10.0 mi Calm Calm - N/A   Clear
2:30 AM 44.6 °F 35.6 °F 71% 30.38 in 10.0 mi Calm Calm - N/A   Clear
2:48 AM 44.6 °F 35.6 °F 71% 30.39 in 10.0 mi Calm Calm - N/A   Clear
3:06 AM 41.0 °F 33.8 °F 76% 30.39 in 10.0 mi Calm Calm - N/A   Clear
3:30 AM 41.0 °F 32.0 °F 70% 30.39 in 10.0 mi Calm Calm - N/A   Clear
3:48 AM 41.0 °F 33.8 °F 76% 30.39 in 10.0 mi Calm Calm - N/A   Clear
4:06 AM 41.0 °F 32.0 °F 70% 30.39 in 10.0 mi Calm Calm - N/A   Clear
4:48 AM 39.2 °F 33.8 °F 81% 30.40 in 10.0 mi Calm Calm - N/A   Clear
5:06 AM 39.2 °F 32.0 °F 75% 30.41 in 10.0 mi Calm Calm - N/A   Clear
5:30 AM 37.4 °F 32.0 °F 81% 30.41 in 10.0 mi Calm Calm - N/A   Clear
5:48 AM 39.2 °F 33.8 °F 81% 30.41 in 10.0 mi Calm Calm - N/A   Clear
6:06 AM 37.4 °F 32.0 °F 81% 30.42 in 10.0 mi Calm Calm - N/A   Clear
6:30 AM 37.4 °F 32.0 °F 81% 30.43 in 10.0 mi Calm Calm - N/A   Clear
6:48 AM 37.4 °F 32.0 °F 81% 30.44 in 10.0 mi Calm Calm - N/A   Clear
7:06 AM 37.4 °F 32.0 °F 81% 30.44 in 10.0 mi Calm Calm - N/A   Clear
7:30 AM 41.0 °F 33.8 °F 76% 30.45 in 10.0 mi Calm Calm - N/A   Clear
7:48 AM 42.8 °F 33.8 °F 70% 30.45 in 10.0 mi Calm Calm - N/A   Scattered Clouds
8:06 AM 44.6 °F 35.6 °F 71% 30.45 in 10.0 mi Calm Calm - N/A   Scattered Clouds
8:30 AM 48.2 °F 35.6 °F 62% 30.46 in 10.0 mi Calm Calm - N/A   Scattered Clouds
8:48 AM 50.0 °F 35.6 °F 58% 30.46 in 10.0 mi Calm Calm - N/A   Scattered Clouds
9:06 AM 53.6 °F 37.4 °F 54% 30.45 in 10.0 mi Calm Calm - N/A   Scattered Clouds
9:30 AM 55.4 °F 37.4 °F 51% 30.45 in 10.0 mi Calm Calm - N/A   Scattered Clouds
9:48 AM 59.0 °F 37.4 °F 45% 30.44 in 10.0 mi Calm Calm - N/A   Scattered Clouds
10:06 AM 60.8 °F 37.4 °F 42% 30.44 in 10.0 mi Calm Calm - N/A   Scattered Clouds
10:30 AM 68.0 °F 41.0 °F 37% 30.44 in 10.0 mi Calm Calm - N/A   Scattered Clouds
10:48 AM 68.0 °F 39.2 °F 35% 30.43 in 10.0 mi Calm Calm - N/A   Clear
11:06 AM 69.8 °F 41.0 °F 35% 30.42 in 10.0 mi Calm Calm - N/A   Clear
11:30 AM 73.4 °F 41.0 °F 31% 30.41 in 10.0 mi ESE 3.5 mph - N/A   Clear
11:48 AM 75.2 °F 41.0 °F 29% 30.40 in 10.0 mi WNW 3.5 mph - N/A   Clear
12:06 PM 75.2 °F 41.0 °F 29% 30.40 in 10.0 mi West 3.5 mph - N/A   Clear
12:30 PM 78.8 °F 41.0 °F 26% 30.38 in 10.0 mi Calm Calm - N/A   Clear
12:48 PM 82.4 °F 39.2 °F 21% 30.37 in 10.0 mi North 6.9 mph - N/A   Scattered Clouds
1:06 PM 80.6 °F 35.6 °F 20% 30.37 in 10.0 mi NW 5.8 mph - N/A   Mostly Cloudy
1:30 PM 80.6 °F 33.8 °F 18% 30.37 in 10.0 mi NW 5.8 mph - N/A   Mostly Cloudy
1:48 PM 80.6 °F 35.6 °F 20% 30.37 in 10.0 mi WNW 3.5 mph - N/A   Mostly Cloudy
2:06 PM 86.0 °F 33.8 °F 15% 30.36 in 10.0 mi NNW 4.6 mph - N/A   Mostly Cloudy
2:30 PM 82.4 °F 32.0 °F 16% 30.35 in 10.0 mi Calm Calm - N/A   Mostly Cloudy
2:48 PM 82.4 °F 32.0 °F 16% 30.35 in 10.0 mi NNE 6.9 mph - N/A   Mostly Cloudy
3:06 PM 86.0 °F 33.8 °F 15% 30.34 in 10.0 mi NNW 3.5 mph - N/A   Scattered Clouds
3:30 PM 80.6 °F 32.0 °F 17% 30.33 in 10.0 mi North 8.1 mph - N/A   Scattered Clouds
3:48 PM 80.6 °F 32.0 °F 17% 30.33 in 10.0 mi NNE 4.6 mph - N/A   Mostly Cloudy
4:06 PM 80.6 °F 32.0 °F 17% 30.32 in 10.0 mi Calm Calm - N/A   Scattered Clouds
4:30 PM 87.8 °F 33.8 °F 15% 30.32 in 10.0 mi SSE 9.2 mph - N/A   Scattered Clouds
4:48 PM 82.4 °F 32.0 °F 16% 30.32 in 10.0 mi SSW 4.6 mph - N/A   Clear
5:06 PM 82.4 °F 32.0 °F 16% 30.32 in 10.0 mi NNW 4.6 mph - N/A   Clear
5:29 PM 82.4 °F 32.0 °F 16% 30.32 in 10.0 mi North 6.9 mph - N/A   Clear
5:47 PM 86.0 °F 32.0 °F 14% 30.32 in 10.0 mi NE 4.6 mph - N/A   Clear
6:06 PM 86.0 °F 32.0 °F 14% 30.31 in 10.0 mi NNE 6.9 mph - N/A   Clear
6:30 PM 80.6 °F 32.0 °F 17% 30.32 in 10.0 mi North 9.2 mph - N/A   Clear
6:47 PM 80.6 °F 32.0 °F 17% 30.32 in 10.0 mi North 6.9 mph - N/A   Clear
7:06 PM 78.8 °F 32.0 °F 18% 30.32 in 10.0 mi North 4.6 mph - N/A   Clear
7:30 PM 77.0 °F 30.2 °F 18% 30.32 in 10.0 mi Calm Calm - N/A   Clear
7:47 PM 73.4 °F 32.0 °F 22% 30.32 in 10.0 mi Calm Calm - N/A   Clear
8:06 PM 69.8 °F 32.0 °F 25% 30.33 in 10.0 mi WNW 3.5 mph - N/A   Clear
8:31 PM 64.4 °F 32.0 °F 30% 30.34 in 10.0 mi Calm Calm - N/A   Clear
8:49 PM 60.8 °F 30.2 °F 31% 30.34 in 10.0 mi South 4.6 mph - N/A   Clear
9:06 PM 60.8 °F 32.0 °F 34% 30.35 in 10.0 mi Calm Calm - N/A   Clear
9:30 PM 59.0 °F 30.2 °F 34% 30.35 in 10.0 mi ESE 3.5 mph - N/A   Clear
9:48 PM 59.0 °F 32.0 °F 36% 30.36 in 10.0 mi Calm Calm - N/A   Clear
10:06 PM 59.0 °F 33.8 °F 39% 30.37 in 10.0 mi SSW 4.6 mph - N/A   Clear
10:30 PM 55.4 °F 35.6 °F 47% 30.37 in 10.0 mi Calm Calm - N/A   Clear
10:47 PM 55.4 °F 35.6 °F 47% 30.37 in 10.0 mi North 3.5 mph - N/A   Clear
11:06 PM 53.6 °F 35.6 °F 51% 30.38 in 10.0 mi Calm Calm - N/A   Clear
11:25 PM 51.8 °F 35.6 °F 54% 30.38 in 10.0 mi Calm Calm - N/A   Clear
11:48 PM 50.0 °F 35.6 °F 58% 30.38 in 10.0 mi Calm Calm - N/A   Clear